Weather History for KW22 - June, 2013

Change the Weather History Date:

Thursday, June 27, 2013

  Actual Average (KEKN) Record (KEKN)
Temperature  
Mean Temperature 68 °F 69 °F  
Max Temperature 69 °F 80 °F 92 °F (2005)
Min Temperature 66 °F 57 °F 39 °F (1979)
Degree Days  
Heating Degree Days 0 1  
Month to date heating degree days 53  
Since 1 June heating degree days 53  
Since 1 July heating degree days 5850  
Cooling Degree Days 2 5  
Month to date cooling degree days 78  
Year to date cooling degree days 101  
Since 1 June cooling degree days 78  
Growing Degree Days 18 (Base 50)    
Moisture  
Dew Point 67 °F    
Average Humidity 98    
Maximum Humidity 100    
Minimum Humidity 83    
Precipitation  
Precipitation 1.60 in 0.16 in 1.78 in (1922)
Month to date precipitation 3.91  
Year to date precipitation 23.12  
Snow  
Snow 0.00 in - - ()
Month to date snowfall  
Since 1 September snowfall  
Snow Depth -    
Sea Level Pressure  
Sea Level Pressure 29.81 in    
Wind  
Wind Speed 4 mph (SW)    
Max Wind Speed 13 mph    
Max Gust Speed 18 mph    
Visibility 6 miles    
Events Rain    
T = Trace of Precipitation, MM = Missing Value Source: NWS Daily Summary

Daily Weather History Graph

Daily Weather History Graph

Search for Another Location

Airport or City:

Trip Planner

Search our weather history database for the weather conditions in past years. The results will help you decide how hot, cold, wet, or windy it might be!

Date:

Astronomy

Jun. 27, 2013 Rise Set
Actual Time 5:57 AM EDT 8:50 PM EDT
Civil Twilight 5:25 AM EDT 9:22 PM EDT
Nautical Twilight 4:44 AM EDT 10:03 PM EDT
Astronomical Twilight 3:58 AM EDT 10:49 PM EDT
Moon 11:50 PM EDT (6/27) 10:54 AM EDT (6/27)
Length of Visible Light 15h 57m
Length of Day
14h 53m
Waning Gibbous, 76% of the Moon is Illuminated
Jun 27
Waning Gibbous
Jun 30
Last Quarter
Jul 8
New
Jul 15
First Quarter
Jul 22
Full

Hourly Weather History & Observations

Time (EDT) Temp. Dew Point Humidity Pressure Visibility Wind Dir Wind Speed Gust Speed Precip Events Conditions
12:15 AM 69.8 °F 68.0 °F 94% 29.90 in 10.0 mi SSE 5.8 mph - N/A   Clear
12:35 AM 69.8 °F 66.2 °F 88% 29.90 in 10.0 mi Calm Calm - N/A   Clear
12:55 AM 69.8 °F 68.0 °F 94% 29.89 in 10.0 mi Calm Calm - N/A   Clear
1:15 AM 69.8 °F 66.2 °F 88% 29.90 in 10.0 mi SW 6.9 mph - N/A   Clear
1:35 AM 69.8 °F 66.2 °F 88% 29.89 in 10.0 mi SSW 6.9 mph - N/A   Partly Cloudy
2:15 AM 69.8 °F 64.4 °F 83% 29.88 in 10.0 mi WSW 4.6 mph - N/A   Clear
2:35 AM 69.8 °F 64.4 °F 83% 29.88 in 10.0 mi Calm Calm - N/A   Partly Cloudy
2:55 AM 69.8 °F 64.4 °F 83% 29.87 in 10.0 mi Calm Calm - N/A   Partly Cloudy
3:15 AM 68.0 °F 64.4 °F 88% 29.86 in 10.0 mi Calm Calm - N/A   Clear
3:35 AM 68.0 °F 64.4 °F 88% 29.84 in 10.0 mi Calm Calm - N/A   Clear
3:55 AM 68.0 °F 64.4 °F 88% 29.83 in 10.0 mi Calm Calm - N/A   Clear
4:15 AM 68.0 °F 66.2 °F 94% 29.82 in 10.0 mi East 4.6 mph - N/A   Clear
4:35 AM 68.0 °F 66.2 °F 94% 29.82 in 10.0 mi Calm Calm - N/A   Partly Cloudy
4:55 AM 66.2 °F 66.2 °F 100% 29.82 in 10.0 mi Calm Calm - N/A   Partly Cloudy
5:15 AM 66.2 °F 66.2 °F 100% 29.81 in 10.0 mi Calm Calm - N/A   Partly Cloudy
5:35 AM 66.2 °F 66.2 °F 100% 29.80 in 10.0 mi Calm Calm - N/A   Partly Cloudy
5:55 AM 66.2 °F 66.2 °F 100% 29.80 in 8.0 mi Calm Calm - N/A   Clear
6:15 AM 66.2 °F 66.2 °F 100% 29.80 in 9.0 mi Calm Calm - N/A   Scattered Clouds
6:35 AM 66.2 °F 66.2 °F 100% 29.80 in 9.0 mi Calm Calm - N/A Rain Light Rain
6:55 AM 66.2 °F 66.2 °F 100% 29.80 in 8.0 mi WNW 3.5 mph - N/A   Overcast
7:15 AM 66.2 °F 66.2 °F 100% 29.80 in 0.8 mi Calm Calm - 0.42 in Rain Heavy Rain
7:35 AM 66.2 °F 66.2 °F 100% 29.80 in 0.2 mi Calm Calm - 0.60 in   Light Drizzle
7:55 AM 66.2 °F 66.2 °F 100% 29.80 in 0.8 mi Calm Calm - 0.60 in   Overcast
8:15 AM 66.2 °F 66.2 °F 100% 29.81 in 5.0 mi Calm Calm - N/A   Light Drizzle
8:35 AM 66.2 °F 66.2 °F 100% 29.80 in 5.0 mi Calm Calm - N/A   Overcast
8:55 AM 66.2 °F 66.2 °F 100% 29.81 in 0.5 mi Calm Calm - 0.15 in Rain Heavy Rain
9:15 AM 66.2 °F 66.2 °F 100% 29.82 in 0.8 mi NW 8.1 mph - 0.26 in Rain Heavy Rain
9:35 AM 66.2 °F 66.2 °F 100% 29.82 in 1.5 mi NW 6.9 mph - 0.72 in Rain Rain
9:55 AM 66.2 °F 66.2 °F 100% 29.83 in 2.5 mi West 6.9 mph - 0.82 in Rain Rain
10:15 AM 66.2 °F 66.2 °F 100% 29.83 in 5.0 mi West 6.9 mph - N/A Rain Light Rain
10:35 AM 66.2 °F 66.2 °F 100% 29.83 in 10.0 mi WSW 8.1 mph - N/A   Light Drizzle
10:55 AM 66.2 °F 66.2 °F 100% 29.83 in 10.0 mi SW 4.6 mph - N/A   Overcast
11:15 AM 66.2 °F 66.2 °F 100% 29.84 in 10.0 mi West 8.1 mph - N/A   Overcast
11:35 AM 66.2 °F 66.2 °F 100% 29.84 in 3.0 mi WSW 5.8 mph - N/A   Overcast
11:55 AM 66.2 °F 66.2 °F 100% 29.84 in 6.0 mi WSW 10.4 mph - N/A   Overcast
12:15 PM 66.2 °F 66.2 °F 100% 29.83 in 5.0 mi SW 5.8 mph - N/A   Overcast
12:35 PM 66.2 °F 66.2 °F 100% 29.83 in 2.0 mi SW 4.6 mph - N/A   Overcast
12:55 PM 66.2 °F 66.2 °F 100% 29.83 in 2.0 mi SSW 6.9 mph - N/A   Light Drizzle
1:15 PM 66.2 °F 66.2 °F 100% 29.82 in 2.0 mi SW 9.2 mph - 0.01 in Rain Rain
1:35 PM 66.2 °F 66.2 °F 100% 29.82 in 10.0 mi SW 6.9 mph - 0.03 in   Overcast
1:55 PM 66.2 °F 66.2 °F 100% 29.81 in 1.2 mi SSW 5.8 mph - 0.03 in   Overcast
2:15 PM 66.2 °F 66.2 °F 100% 29.81 in 3.0 mi SW 9.2 mph - N/A   Overcast
2:35 PM 68.0 °F 68.0 °F 100% 29.81 in 10.0 mi SW 10.4 mph - N/A   Mostly Cloudy
2:55 PM 68.0 °F 68.0 °F 100% 29.80 in 3.0 mi SW 10.4 mph - N/A   Overcast
3:15 PM 68.0 °F 68.0 °F 100% 29.80 in 2.5 mi WSW 9.2 mph - N/A   Overcast
3:35 PM 68.0 °F 68.0 °F 100% 29.80 in 10.0 mi WSW 11.5 mph - N/A   Overcast
3:55 PM 69.8 °F 69.8 °F 100% 29.80 in 10.0 mi WSW 9.2 mph - N/A   Overcast
4:15 PM 68.0 °F 68.0 °F 100% 29.80 in 10.0 mi SW 9.2 mph - N/A   Overcast
4:35 PM 68.0 °F 68.0 °F 100% 29.79 in 4.0 mi SW 12.7 mph 18.4 mph N/A   Overcast
4:55 PM 68.0 °F 68.0 °F 100% 29.79 in 1.5 mi WSW 9.2 mph - N/A   Overcast
5:15 PM 68.0 °F 68.0 °F 100% 29.79 in 8.0 mi SW 12.7 mph - N/A   Overcast
5:35 PM 69.8 °F 69.8 °F 100% 29.78 in 10.0 mi WSW 10.4 mph - N/A   Overcast
5:55 PM 68.0 °F 68.0 °F 100% 29.77 in 10.0 mi WSW 10.4 mph - N/A   Overcast
6:15 PM 69.8 °F 69.8 °F 100% 29.77 in 10.0 mi SW 8.1 mph - N/A   Overcast
6:35 PM 69.8 °F 69.8 °F 100% 29.77 in 7.0 mi SW 6.9 mph - N/A   Overcast
6:55 PM 69.8 °F 69.8 °F 100% 29.77 in 4.0 mi SW 8.1 mph - N/A   Overcast
7:15 PM 69.8 °F 69.8 °F 100% 29.78 in 6.0 mi SW 9.2 mph - N/A   Overcast
7:35 PM 69.8 °F 69.8 °F 100% 29.79 in 5.0 mi WSW 5.8 mph - N/A   Overcast
7:55 PM 69.8 °F 69.8 °F 100% 29.79 in 4.0 mi SW 8.1 mph - N/A   Mostly Cloudy
8:15 PM 69.8 °F 69.8 °F 100% 29.79 in 4.0 mi SSW 5.8 mph - N/A   Mostly Cloudy
8:35 PM 69.8 °F 69.8 °F 100% 29.79 in 3.0 mi SSW 6.9 mph - N/A   Mostly Cloudy
8:55 PM 68.0 °F 68.0 °F 100% 29.78 in 3.0 mi SSW 5.8 mph - N/A   Mostly Cloudy
9:15 PM 68.0 °F 68.0 °F 100% 29.78 in 5.0 mi SSW 5.8 mph - N/A   Scattered Clouds
9:35 PM 69.8 °F 69.8 °F 100% 29.77 in 5.0 mi SSW 5.8 mph - N/A   Scattered Clouds
9:55 PM 69.8 °F 69.8 °F 100% 29.77 in 5.0 mi Calm Calm - N/A   Mostly Cloudy
10:15 PM 69.8 °F 69.8 °F 100% 29.78 in 5.0 mi SSW 3.5 mph - N/A   Light Drizzle
10:35 PM 69.8 °F 69.8 °F 100% 29.77 in 5.0 mi Calm Calm - N/A   Light Drizzle
10:55 PM 69.8 °F 69.8 °F 100% 29.77 in 5.0 mi SSW 6.9 mph - N/A   Scattered Clouds
11:15 PM 69.8 °F 69.8 °F 100% 29.77 in 5.0 mi SW 10.4 mph - N/A   Mostly Cloudy
11:35 PM 69.8 °F 69.8 °F 100% 29.76 in 6.0 mi WSW 6.9 mph - N/A   Scattered Clouds
11:55 PM 69.8 °F 69.8 °F 100% 29.76 in 7.0 mi SW 9.2 mph - N/A   Mostly Cloudy